Weather History for Victoria University, BC

Change the Weather History Date:

Thursday, February 13, 2014

  Actual Average Record
Temperature  
Mean Temperature 46 °F -  
Max Temperature 53 °F - - ()
Min Temperature 39 °F - - ()
Degree Days  
Heating Degree Days 19    
Moisture  
Dew Point 39 °F    
Average Humidity 77    
Maximum Humidity 100    
Minimum Humidity 45    
Precipitation  
Precipitation 0.08 in - - ()
Sea Level Pressure  
Sea Level Pressure 29.87 in    
Wind  
Wind Speed 6 mph ()    
Max Wind Speed 14 mph    
Max Gust Speed 26 mph    
T = Trace of Precipitation, MM = Missing Value Source: Averaged Metar Reports

Daily Weather History Graph

Daily Weather History Graph

Search for Another Location

Airport:

Trip Planner

Search our weather history database for the weather conditions in past years. The results will help you decide how hot, cold, wet, or windy it might be!

Date:

Astronomy

Feb. 13, 2014 Rise Set
Actual Time 7:23 AM PST 5:31 PM PST
Civil Twilight 6:51 AM PST 6:04 PM PST
Nautical Twilight 6:14 AM PST 6:41 PM PST
Astronomical Twilight 5:38 AM PST 7:17 PM PST
Moon 4:45 PM PST (2/13) 6:20 AM PST (2/13)
Length of Visible Light 11h 13m
Length of Day
10h 08m
Waxing Gibbous, 99% of the Moon is Illuminated
Feb 13
Waxing Gibbous
Feb 14
Full
Feb 22
Last Quarter
Mar 1
New
Mar 8
First Quarter

Hourly Weather History & Observations

Time (PST) Temp. Windchill Dew Point Humidity Pressure Visibility Wind Dir Wind Speed Gust Speed Precip Events Conditions
12:00 AM 40.5 °F - 39.0 °F 95% 29.68 in - West 2.3 mph - N/A   Unknown
1:00 AM 40.1 °F - 40.3 °F 100% 29.70 in - South 1.2 mph - 0.02 in   Unknown
2:00 AM 42.8 °F 39.3 °F 40.8 °F 93% 29.71 in - WSW 5.8 mph - N/A   Unknown
3:00 AM 45.7 °F 41.5 °F 42.4 °F 88% 29.72 in - WSW 8.1 mph - 0.02 in   Unknown
4:00 AM 46 °F - 41 °F 77% 29.72 in - WSW 9.2 mph - -  
4:00 AM 45.9 °F 41.2 °F 41.2 °F 84% 29.72 in - WSW 9.2 mph 17.3 mph N/A   Unknown
5:00 AM 44.8 °F 39.0 °F 40.8 °F 86% 29.76 in - WSW 11.5 mph 21.9 mph 0.05 in   Unknown
6:00 AM 43.7 °F 37.3 °F 39.2 °F 84% 29.78 in - WSW 12.7 mph 24.2 mph 0.02 in   Unknown
7:00 AM 44.8 °F 38.3 °F 38.7 °F 79% 29.83 in - WSW 13.8 mph 25.3 mph N/A   Unknown
8:00 AM 44.2 °F 40.3 °F 39.4 °F 83% 29.87 in - WSW 6.9 mph - 0.01 in   Unknown
9:00 AM 45.9 °F 42.3 °F 38.3 °F 75% 29.92 in - WSW 6.9 mph - N/A   Unknown
10:00 AM 48 °F - 38 °F 60% 29.93 in - SW 13.8 mph - -  
10:00 AM 47.8 °F - 38.5 °F 70% 29.93 in - SW 13.8 mph 26.5 mph N/A   Unknown
12:00 PM 49.6 °F - 36.9 °F 61% 30.02 in - WSW 11.5 mph 23.0 mph 0.01 in   Unknown
1:00 PM 50.4 °F - 38.5 °F 64% 30.01 in - WSW 8.1 mph - N/A   Unknown
2:00 PM 51.4 °F - 38.3 °F 61% 30.03 in - WSW 8.1 mph - N/A   Unknown
3:00 PM 51.6 °F - 37.2 °F 58% 30.03 in - West 6.9 mph - N/A   Unknown
4:00 PM 51 °F - 36 °F 45% 30.02 in - WSW 8.1 mph - -  
4:00 PM 51.4 °F - 36.0 °F 56% 30.02 in - WSW 8.1 mph - N/A   Unknown
5:00 PM 46.6 °F - 37.9 °F 72% 30.03 in - South 1.2 mph - N/A   Unknown
6:00 PM 41.5 °F - 37.0 °F 84% 29.98 in - Calm Calm - N/A   Unknown
7:00 PM 40.1 °F - 37.4 °F 90% 29.96 in - NNE 1.2 mph - N/A   Unknown
8:00 PM 42.4 °F - 36.7 °F 80% 29.92 in - Calm Calm - N/A   Unknown
9:00 PM 43.3 °F - 38.5 °F 83% 29.86 in - East 1.2 mph - N/A   Unknown
10:00 PM 44 °F - 39 °F 78% 29.81 in - ESE 2.3 mph - -  
10:00 PM 44.4 °F - 39.4 °F 82% 29.81 in - ESE 2.3 mph - N/A   Unknown
11:00 PM 44.4 °F 42.9 °F 39.0 °F 81% 29.74 in - East 3.5 mph - N/A   Unknown